TimeAKST,TemperatureF,Dew PointF,Humidity,Sea Level PressureIn,VisibilityMPH,Wind Direction,Wind SpeedMPH,Gust SpeedMPH,PrecipitationIn,Events,Conditions,WindDirDegrees,DateUTC
12:53 AM,23.0,17.1,78,30.17,10.0,North,11.5,-,N/A,,Clear,360,2012-11-26 09:53:00
1:53 AM,24.1,17.1,75,30.18,10.0,NNE,12.7,19.6,N/A,,Clear,30,2012-11-26 10:53:00
3:53 AM,24.1,17.1,75,30.19,10.0,North,11.5,-,N/A,,Clear,10,2012-11-26 12:53:00
4:53 AM,25.0,18.0,75,30.19,10.0,North,13.8,24.2,N/A,,Clear,10,2012-11-26 13:53:00
5:53 AM,24.1,17.1,75,30.21,10.0,North,11.5,19.6,N/A,,Clear,10,2012-11-26 14:53:00
6:53 AM,24.1,17.1,75,30.22,10.0,North,13.8,19.6,N/A,,Clear,10,2012-11-26 15:53:00
7:53 AM,23.0,16.0,74,30.22,10.0,North,11.5,18.4,N/A,,Clear,10,2012-11-26 16:53:00
8:53 AM,24.1,16.0,71,30.22,10.0,North,15.0,21.9,N/A,,Clear,10,2012-11-26 17:53:00
9:53 AM,25.0,16.0,69,30.24,10.0,North,15.0,24.2,N/A,,Clear,10,2012-11-26 18:53:00
10:53 AM,25.0,16.0,69,30.25,10.0,North,12.7,19.6,N/A,,Clear,10,2012-11-26 19:53:00
11:53 AM,25.0,16.0,69,30.25,10.0,North,12.7,-,N/A,,Clear,10,2012-11-26 20:53:00
12:53 PM,27.0,17.1,66,30.24,10.0,North,10.4,-,N/A,,Clear,350,2012-11-26 21:53:00
1:53 PM,28.0,17.1,63,30.24,10.0,North,11.5,-,N/A,,Clear,360,2012-11-26 22:53:00
2:53 PM,28.0,17.1,63,30.23,10.0,North,11.5,-,N/A,,Clear,10,2012-11-26 23:53:00
3:53 PM,26.1,17.1,69,30.24,10.0,North,13.8,-,N/A,,Clear,350,2012-11-27 00:53:00
4:53 PM,24.1,17.1,75,30.23,10.0,North,12.7,-,N/A,,Clear,350,2012-11-27 01:53:00
5:53 PM,21.9,16.0,78,30.23,10.0,North,12.7,-,N/A,,Clear,350,2012-11-27 02:53:00
6:53 PM,21.0,15.1,78,30.22,10.0,NNW,10.4,-,N/A,,Clear,340,2012-11-27 03:53:00
7:53 PM,21.0,15.1,78,30.22,10.0,NNW,9.2,-,N/A,,Clear,340,2012-11-27 04:53:00
8:53 PM,21.0,15.1,78,30.21,10.0,NNW,10.4,-,N/A,,Clear,340,2012-11-27 05:53:00
9:53 PM,19.0,14.0,81,30.20,10.0,North,10.4,-,N/A,,Clear,350,2012-11-27 06:53:00
10:53 PM,19.9,14.0,78,30.18,10.0,NNW,10.4,-,N/A,,Clear,340,2012-11-27 07:53:00
11:53 PM,19.0,14.0,81,30.17,10.0,NNW,9.2,-,N/A,,Scattered Clouds,340,2012-11-27 08:53:00